Location: Ferchesar
(52.6477°N, 12.4298°E)
Time: 22:11:14
(UTC+01:00)

TIGRISAT - Pass Details

Date: 20 October 2021
Orbit: 603 x 689 km, 97.7° (Epoch: 30 November)

Event Time Altitude Azimuth Distance (km) Brightness Sun altitude
Rises 19:47:53 0° 19° (NNE) 3,008 ? -16.4°
Reaches altitude 10° 19:50:17 10° 27° (NNE) 2,077 ? -16.8°
Maximum altitude 19:54:31 38° 96° (E) 986 ? -17.4°
Drops below altitude 10° 19:58:37 10° 165° (SSE) 2,010 ? -18.0°
Sets 20:00:54 0° 174° (S) 2,899 ? -18.4°
